CCA0830 ZSAM-ZGGG

Flight info

Callsign CCA0830
Flight time N/A
Altitude 32100
Route NUSPA W597 IKATA A470 BEBEM R200 GUBLO W22 IDUMA
Aircraft A320/L-V/N

Departure

Time 2026-05-05 08:48
Airport Xiamen Gaoqi International Airport (ZSAM)

Arrival

Time N/A
Airport Guangzhou Baiyun International Airport (ZGGG)
Time Latitude Longitude Altitude Speed Heading
2026-05-05 08:48 24.60978 118.28170 9811 ft 242 kts 153°
2026-05-05 08:48 24.59460 118.28767 10754 ft 230 kts 183°
2026-05-05 08:48 24.57904 118.28597 11682 ft 222 kts 205°
2026-05-05 08:48 24.56530 118.27874 12557 ft 217 kts 221°
2026-05-05 08:49 24.55385 118.26821 13536 ft 213 kts 230°
2026-05-05 08:49 24.54392 118.25621 14385 ft 212 kts 234°
2026-05-05 08:49 24.53466 118.24347 15129 ft 215 kts 236°
2026-05-05 08:49 24.52552 118.23037 15883 ft 217 kts 236°
2026-05-05 08:50 24.51633 118.21717 16649 ft 218 kts 235°
2026-05-05 08:50 24.50696 118.20379 17288 ft 228 kts 235°
2026-05-05 08:50 24.49679 118.18931 17525 ft 252 kts 234°
2026-05-05 08:50 24.48569 118.17357 17711 ft 276 kts 234°
2026-05-05 08:51 24.47341 118.15623 17894 ft 299 kts 234°
2026-05-05 08:51 24.46016 118.13756 18086 ft 321 kts 233°
2026-05-05 08:51 24.44602 118.11768 18287 ft 339 kts 233°
2026-05-05 08:51 24.43133 118.09707 18825 ft 345 kts 234°
2026-05-05 08:52 24.41650 118.07627 19480 ft 347 kts 234°
2026-05-05 08:52 24.40158 118.05534 20138 ft 350 kts 234°
2026-05-05 08:52 24.38652 118.03420 20806 ft 354 kts 234°
2026-05-05 08:52 24.37129 118.01282 21517 ft 356 kts 234°
2026-05-05 08:53 24.35595 117.99129 22144 ft 360 kts 234°
2026-05-05 08:53 24.34042 117.96953 22737 ft 364 kts 235°
2026-05-05 08:53 24.32474 117.94757 23324 ft 367 kts 235°
2026-05-05 08:53 24.30894 117.92544 23884 ft 370 kts 235°
2026-05-05 08:54 24.29305 117.90320 24415 ft 372 kts 235°
2026-05-05 08:54 24.27703 117.88077 24885 ft 375 kts 235°
2026-05-05 08:54 24.26087 117.85813 25394 ft 379 kts 236°
2026-05-05 08:54 24.24416 117.83606 25878 ft 385 kts 232°
2026-05-05 08:55 24.22535 117.81544 26388 ft 389 kts 229°
2026-05-05 08:55 24.20591 117.79474 26885 ft 391 kts 229°
2026-05-05 08:55 24.18636 117.77382 27316 ft 394 kts 229°
2026-05-05 08:55 24.16704 117.75310 27767 ft 397 kts 229°
2026-05-05 08:56 24.14725 117.73186 28199 ft 400 kts 229°
2026-05-05 08:56 24.12767 117.71086 28609 ft 403 kts 229°
2026-05-05 08:56 24.10720 117.68890 29026 ft 406 kts 229°
2026-05-05 08:56 24.08695 117.66720 29456 ft 409 kts 229°
2026-05-05 08:57 24.06741 117.64627 29854 ft 411 kts 229°
2026-05-05 08:57 24.04689 117.62431 30267 ft 414 kts 229°
2026-05-05 08:57 24.02628 117.60222 30636 ft 416 kts 230°
2026-05-05 08:57 24.00557 117.58002 31047 ft 417 kts 230°
2026-05-05 08:58 23.98487 117.55783 31469 ft 418 kts 230°
2026-05-05 08:58 23.96412 117.53561 31814 ft 416 kts 230°
2026-05-05 08:58 23.94356 117.51361 31907 ft 412 kts 230°
2026-05-05 08:59 23.90253 117.46970 32109 ft 414 kts 230°
2026-05-05 08:59 23.86231 117.42537 32123 ft 410 kts 235°
2026-05-05 09:00 23.83323 117.37347 32121 ft 401 kts 250°
2026-05-05 09:00 23.81599 117.31559 32123 ft 400 kts 255°
2026-05-05 09:01 23.79954 117.25757 32123 ft 400 kts 255°
2026-05-05 09:01 23.78300 117.19950 32120 ft 401 kts 255°
2026-05-05 09:02 23.76237 117.14315 32132 ft 406 kts 244°
2026-05-05 09:02 23.72784 117.09365 32131 ft 415 kts 231°
2026-05-05 09:03 23.68775 117.04824 32133 ft 415 kts 232°
2026-05-05 09:03 23.64779 117.00271 32129 ft 415 kts 232°
2026-05-05 09:04 23.60776 116.95716 32130 ft 415 kts 232°
2026-05-05 09:04 23.56776 116.91171 32129 ft 415 kts 232°
2026-05-05 09:05 23.52780 116.86632 32123 ft 415 kts 231°
2026-05-05 09:05 23.48776 116.82090 32120 ft 415 kts 231°
2026-05-05 09:06 23.44790 116.77591 32116 ft 416 kts 230°
2026-05-05 09:06 23.40270 116.73562 32109 ft 421 kts 223°
2026-05-05 09:07 23.35601 116.69689 32106 ft 421 kts 224°
2026-05-05 09:07 23.30933 116.65809 32107 ft 422 kts 224°
2026-05-05 09:08 23.26263 116.61931 32108 ft 422 kts 224°
2026-05-05 09:08 23.21620 116.58079 32105 ft 423 kts 224°
2026-05-05 09:09 23.16938 116.54198 32105 ft 423 kts 224°
2026-05-05 09:09 23.12253 116.50318 32101 ft 423 kts 223°
2026-05-05 09:10 23.07567 116.46440 32103 ft 424 kts 223°
2026-05-05 09:10 23.02876 116.42562 32103 ft 424 kts 223°
2026-05-05 09:11 22.98265 116.38583 32110 ft 419 kts 231°
2026-05-05 09:11 22.96450 116.36153 32096 ft 412 kts 242°
2026-05-05 09:11 22.95177 116.33440 32095 ft 407 kts 252°
2026-05-05 09:12 22.94116 116.27464 32096 ft 404 kts 264°
2026-05-05 09:12 22.93507 116.21397 32097 ft 404 kts 264°
2026-05-05 09:13 22.92868 116.15343 32099 ft 404 kts 264°
2026-05-05 09:13 22.92201 116.09286 32112 ft 404 kts 264°
2026-05-05 09:14 22.91504 116.03230 32098 ft 404 kts 264°
2026-05-05 09:14 22.90779 115.97180 32100 ft 405 kts 263°
2026-05-05 09:15 22.90024 115.91124 32117 ft 406 kts 263°
2026-05-05 09:15 22.89241 115.85066 32120 ft 406 kts 263°
2026-05-05 09:16 22.88427 115.79002 32129 ft 406 kts 263°
2026-05-05 09:16 22.87587 115.72952 32120 ft 406 kts 262°
2026-05-05 09:17 22.86735 115.66898 32106 ft 405 kts 265°
2026-05-05 09:17 22.86806 115.60800 32092 ft 405 kts 271°
2026-05-05 09:18 22.86630 115.54733 32083 ft 404 kts 266°
2026-05-05 09:18 22.86384 115.51703 31717 ft 403 kts 265°
2026-05-05 09:18 22.86091 115.48665 30804 ft 409 kts 265°
2026-05-05 09:18 22.85771 115.45560 29455 ft 420 kts 265°
2026-05-05 09:19 22.85438 115.42381 28293 ft 425 kts 265°
2026-05-05 09:19 22.85107 115.39211 27524 ft 420 kts 264°
2026-05-05 09:19 22.84782 115.36095 26980 ft 411 kts 265°
2026-05-05 09:19 22.84468 115.33070 26696 ft 396 kts 265°
2026-05-05 09:20 22.84180 115.30301 26454 ft 383 kts 265°
2026-05-05 09:20 22.83884 115.27439 26241 ft 383 kts 265°
2026-05-05 09:20 22.83585 115.24549 26004 ft 386 kts 265°
2026-05-05 09:20 22.83285 115.21662 25762 ft 385 kts 265°
2026-05-05 09:21 22.82987 115.18791 25528 ft 384 kts 264°
2026-05-05 09:21 22.82692 115.15957 25306 ft 383 kts 264°
2026-05-05 09:21 22.82402 115.13168 25083 ft 381 kts 264°
2026-05-05 09:21 22.82103 115.10315 24855 ft 381 kts 264°
2026-05-05 09:22 22.81803 115.07453 24631 ft 381 kts 264°
2026-05-05 09:22 22.81602 115.05543 24482 ft 381 kts 264°
2026-05-05 09:22 22.81205 115.01768 24189 ft 380 kts 264°
2026-05-05 09:22 22.80905 114.98920 23968 ft 378 kts 264°
2026-05-05 09:23 22.80606 114.96089 23746 ft 378 kts 264°
2026-05-05 09:23 22.80307 114.93261 23511 ft 378 kts 264°
2026-05-05 09:23 22.80105 114.91350 23345 ft 377 kts 264°
2026-05-05 09:23 22.79709 114.87621 23000 ft 374 kts 264°
2026-05-05 09:24 22.79513 114.85771 22832 ft 373 kts 264°
2026-05-05 09:24 22.79215 114.82974 22575 ft 373 kts 264°
2026-05-05 09:24 22.78917 114.80183 22322 ft 371 kts 264°
2026-05-05 09:24 22.78622 114.77411 22069 ft 370 kts 264°
2026-05-05 09:25 22.78327 114.74651 21821 ft 368 kts 264°
2026-05-05 09:25 22.78042 114.71904 21576 ft 367 kts 264°
2026-05-05 09:25 22.77764 114.69162 21329 ft 365 kts 264°
2026-05-05 09:25 22.77489 114.66424 21087 ft 364 kts 264°
2026-05-05 09:26 22.77213 114.63700 20842 ft 363 kts 264°
2026-05-05 09:26 22.76937 114.60988 20606 ft 362 kts 264°
2026-05-05 09:26 22.76661 114.58287 20366 ft 360 kts 264°
2026-05-05 09:26 22.76385 114.55596 20132 ft 359 kts 264°
2026-05-05 09:27 22.76109 114.52911 19901 ft 358 kts 264°
2026-05-05 09:27 22.75835 114.50232 19671 ft 357 kts 264°
2026-05-05 09:27 22.75563 114.47562 19440 ft 355 kts 264°
2026-05-05 09:27 22.75311 114.45094 19229 ft 354 kts 264°
2026-05-05 09:28 22.75040 114.42445 18998 ft 353 kts 264°
2026-05-05 09:28 22.74784 114.39943 18786 ft 352 kts 264°
2026-05-05 09:28 22.74523 114.37408 18572 ft 351 kts 264°
2026-05-05 09:28 22.74253 114.34783 18349 ft 350 kts 264°
2026-05-05 09:29 22.73987 114.32195 18108 ft 348 kts 264°
2026-05-05 09:29 22.73719 114.29593 17853 ft 347 kts 264°
2026-05-05 09:29 22.73451 114.26998 17597 ft 347 kts 264°
2026-05-05 09:29 22.73182 114.24397 17347 ft 346 kts 264°
2026-05-05 09:30 22.72913 114.21807 17090 ft 345 kts 264°
2026-05-05 09:30 22.72646 114.19227 16843 ft 344 kts 264°
2026-05-05 09:30 22.72391 114.16781 16608 ft 344 kts 264°
2026-05-05 09:30 22.72131 114.14284 16369 ft 344 kts 264°
2026-05-05 09:31 22.71863 114.11714 16126 ft 343 kts 263°
2026-05-05 09:31 22.71618 114.09227 15888 ft 342 kts 266°
2026-05-05 09:31 22.71814 114.06815 15755 ft 342 kts 282°
2026-05-05 09:31 22.72531 114.04783 15690 ft 346 kts 296°
2026-05-05 09:32 22.74003 114.02709 15641 ft 353 kts 313°
2026-05-05 09:32 22.76054 114.01197 15439 ft 361 kts 331°
2026-05-05 09:32 22.78377 114.00152 15210 ft 361 kts 333°
2026-05-05 09:32 22.80705 113.99133 14974 ft 360 kts 333°
2026-05-05 09:33 22.82936 113.98152 14759 ft 359 kts 333°
2026-05-05 09:33 22.85241 113.97134 14532 ft 359 kts 333°
2026-05-05 09:33 22.87557 113.96107 14302 ft 357 kts 334°
2026-05-05 09:33 22.89926 113.95263 14078 ft 361 kts 342°
2026-05-05 09:34 22.92407 113.94782 13840 ft 363 kts 349°
2026-05-05 09:34 22.94910 113.94454 13540 ft 362 kts 349°
2026-05-05 09:34 22.97407 113.94115 13202 ft 360 kts 348°
2026-05-05 09:34 22.99868 113.93778 12795 ft 353 kts 348°
2026-05-05 09:35 23.02276 113.93447 12515 ft 343 kts 348°
2026-05-05 09:35 23.06859 113.92818 12069 ft 321 kts 348°
2026-05-05 09:35 23.09039 113.92518 11849 ft 312 kts 348°
2026-05-05 09:36 23.11136 113.92229 11629 ft 304 kts 348°
2026-05-05 09:36 23.13248 113.91935 11411 ft 307 kts 348°
2026-05-05 09:36 23.15361 113.91641 11205 ft 306 kts 348°
2026-05-05 09:36 23.17469 113.91343 10986 ft 303 kts 346°
2026-05-05 09:37 23.19398 113.90553 10770 ft 294 kts 322°
2026-05-05 09:37 23.20787 113.88994 10565 ft 286 kts 297°
2026-05-05 09:37 23.21421 113.87008 10355 ft 280 kts 274°
2026-05-05 09:37 23.21515 113.84902 10154 ft 278 kts 270°
2026-05-05 09:38 23.21585 113.82801 9946 ft 277 kts 270°
2026-05-05 09:38 23.21660 113.80707 9726 ft 277 kts 270°
2026-05-05 09:38 23.21738 113.78616 9496 ft 276 kts 270°
2026-05-05 09:38 23.21818 113.76534 9267 ft 275 kts 270°
2026-05-05 09:39 23.21900 113.74466 9042 ft 275 kts 270°
2026-05-05 09:39 23.21983 113.72393 8816 ft 274 kts 270°
2026-05-05 09:39 23.22064 113.70328 8594 ft 273 kts 270°
2026-05-05 09:39 23.22143 113.68266 8364 ft 273 kts 270°
2026-05-05 09:40 23.22220 113.66279 8161 ft 272 kts 270°
2026-05-05 09:40 23.22299 113.64200 7937 ft 271 kts 270°
2026-05-05 09:40 23.22369 113.62316 7843 ft 270 kts 270°
2026-05-05 09:40 23.22446 113.60270 7795 ft 271 kts 270°
2026-05-05 09:41 23.22523 113.58218 7798 ft 272 kts 270°
2026-05-05 09:41 23.22600 113.56163 7789 ft 272 kts 270°
2026-05-05 09:41 23.22676 113.54114 7788 ft 271 kts 270°
2026-05-05 09:41 23.22753 113.52064 7797 ft 272 kts 270°
2026-05-05 09:42 23.22830 113.50032 7789 ft 262 kts 270°
2026-05-05 09:42 23.22904 113.48108 7786 ft 246 kts 270°
2026-05-05 09:42 23.22975 113.46317 7791 ft 228 kts 270°
2026-05-05 09:42 23.23037 113.44666 7782 ft 213 kts 270°
2026-05-05 09:43 23.23094 113.43034 7786 ft 217 kts 270°
2026-05-05 09:43 23.23152 113.41395 7795 ft 217 kts 270°
2026-05-05 09:43 23.22952 113.39802 7789 ft 214 kts 245°
2026-05-05 09:43 23.22037 113.38553 7781 ft 213 kts 215°
2026-05-05 09:44 23.20647 113.37956 7794 ft 218 kts 196°
2026-05-05 09:44 23.19301 113.37609 7775 ft 218 kts 196°
2026-05-05 09:44 23.17822 113.37223 7782 ft 218 kts 196°
2026-05-05 09:44 23.16367 113.36837 7793 ft 218 kts 196°
2026-05-05 09:45 23.14895 113.36441 7785 ft 218 kts 196°
2026-05-05 09:45 23.13427 113.36044 7813 ft 216 kts 196°
2026-05-05 09:45 23.11970 113.35649 7799 ft 216 kts 196°
2026-05-05 09:45 23.10504 113.35251 7797 ft 217 kts 196°
2026-05-05 09:46 23.09036 113.34853 7815 ft 217 kts 196°
2026-05-05 09:46 23.07565 113.34456 7839 ft 218 kts 196°
2026-05-05 09:46 23.06096 113.34059 7869 ft 218 kts 196°
2026-05-05 09:46 23.04623 113.33661 7872 ft 218 kts 196°
2026-05-05 09:47 23.03141 113.33260 7868 ft 217 kts 197°
2026-05-05 09:47 23.01673 113.32864 7870 ft 217 kts 197°
2026-05-05 09:47 23.00203 113.32468 7875 ft 218 kts 196°
2026-05-05 09:47 22.98750 113.32076 7873 ft 218 kts 196°
2026-05-05 09:48 22.97357 113.31701 7868 ft 218 kts 196°
2026-05-05 09:48 22.95885 113.31304 7863 ft 218 kts 196°
2026-05-05 09:48 22.94417 113.30908 7866 ft 217 kts 196°
2026-05-05 09:48 22.92950 113.30499 7867 ft 217 kts 201°
2026-05-05 09:49 22.91720 113.29605 7870 ft 215 kts 230°
2026-05-05 09:49 22.91138 113.28322 7873 ft 215 kts 257°
2026-05-05 09:49 22.91219 113.26704 7871 ft 219 kts 281°
2026-05-05 09:49 22.91549 113.25324 7872 ft 219 kts 282°
2026-05-05 09:50 22.91930 113.23723 7870 ft 219 kts 282°
2026-05-05 09:50 22.92269 113.22281 7873 ft 219 kts 282°
2026-05-05 09:50 22.92840 113.20750 7857 ft 223 kts 303°
2026-05-05 09:50 22.94074 113.19710 7710 ft 232 kts 335°
2026-05-05 09:51 22.95125 113.19479 7544 ft 235 kts 356°
2026-05-05 09:51 22.96544 113.19716 7308 ft 237 kts 11°
2026-05-05 09:51 22.97831 113.20086 7092 ft 236 kts 14°
2026-05-05 09:51 22.98562 113.20313 7018 ft 235 kts 14°
2026-05-05 09:52 22.99841 113.20711 6954 ft 236 kts 14°
2026-05-05 09:52 23.01339 113.21157 6894 ft 235 kts 13°
2026-05-05 09:52 23.02921 113.21606 6831 ft 234 kts 13°
2026-05-05 09:52 23.04502 113.22040 6687 ft 235 kts 12°
2026-05-05 09:53 23.06082 113.22465 6566 ft 234 kts 12°
2026-05-05 09:53 23.07621 113.22877 6302 ft 222 kts 12°
2026-05-05 09:53 23.09115 113.23276 5873 ft 218 kts 12°
2026-05-05 09:53 23.10220 113.23572 5705 ft 209 kts 12°
2026-05-05 09:54 23.11358 113.23869 5509 ft 206 kts 11°
2026-05-05 09:54 23.12759 113.24227 5232 ft 206 kts 12°
2026-05-05 09:54 23.14154 113.24603 4823 ft 209 kts 12°
2026-05-05 09:54 23.15096 113.24857 4486 ft 212 kts 12°
2026-05-05 09:55 23.16519 113.25241 3987 ft 213 kts 13°
2026-05-05 09:55 23.17877 113.25609 3519 ft 213 kts 13°
2026-05-05 09:55 23.19317 113.25998 3032 ft 212 kts 13°
2026-05-05 09:55 23.20697 113.26371 2550 ft 210 kts 14°
2026-05-05 09:56 23.22096 113.26749 2196 ft 203 kts 14°
2026-05-05 09:56 23.23384 113.27097 2078 ft 183 kts 15°
2026-05-05 09:56 23.24669 113.27446 1983 ft 190 kts 15°
2026-05-05 09:56 23.25944 113.27790 1896 ft 188 kts 15°
2026-05-05 09:57 23.27225 113.28137 1892 ft 190 kts 15°
2026-05-05 09:57 23.28507 113.28484 1768 ft 187 kts 15°
2026-05-05 09:57 23.29711 113.28810 1504 ft 171 kts 15°
2026-05-05 09:57 23.30926 113.29140 1346 ft 196 kts 15°
2026-05-05 09:58 23.31790 113.29375 1834 ft 193 kts 15°